FIN7LP EGLL-EFHK

Flight info

Callsign FIN7LP
Flight time 2h 13m
Altitude 39000
Route BPK Q295 MATCH P144 SAMHO DCT LARGA DCT SOPTO DCT RIRIP Y364 LAKUT
Aircraft A359/H-SDE2E3GHIJ3J4J5LM1ORWXY/LB1D1

Departure

Time 2026-05-06 11:48
Airport London Heathrow Airport (EGLL)

Arrival

Time 2026-05-06 14:01
Airport Helsinki Vantaa Airport (EFHK)
Time Latitude Longitude Altitude Speed Heading
2026-05-06 11:13 51.47435 -0.46414 97 ft 0 kts 179°
2026-05-06 11:30 51.47451 -0.46414 95 ft 4 kts 186°
2026-05-06 11:30 51.47476 -0.46406 94 ft 4 kts 202°
2026-05-06 11:30 51.47498 -0.46387 94 ft 4 kts 225°
2026-05-06 11:31 51.47512 -0.46357 96 ft 4 kts 253°
2026-05-06 11:31 51.47515 -0.46327 94 ft 0 kts 269°
2026-05-06 11:34 51.47515 -0.46331 94 ft 2 kts 269°
2026-05-06 11:34 51.47515 -0.46384 94 ft 6 kts 270°
2026-05-06 11:35 51.47515 -0.46464 93 ft 8 kts 270°
2026-05-06 11:35 51.47515 -0.46564 93 ft 10 kts 270°
2026-05-06 11:35 51.47514 -0.46680 93 ft 11 kts 268°
2026-05-06 11:35 51.47495 -0.46802 96 ft 12 kts 266°
2026-05-06 11:36 51.47487 -0.46881 95 ft 1 kts 235°
2026-05-06 11:36 51.47480 -0.46889 97 ft 3 kts 217°
2026-05-06 11:36 51.47449 -0.46898 96 ft 5 kts 181°
2026-05-06 11:36 51.47409 -0.46884 95 ft 7 kts 166°
2026-05-06 11:37 51.47352 -0.46869 93 ft 11 kts 178°
2026-05-06 11:37 51.47254 -0.46868 93 ft 15 kts 180°
2026-05-06 11:37 51.47144 -0.46867 93 ft 17 kts 179°
2026-05-06 11:37 51.47025 -0.46866 93 ft 18 kts 180°
2026-05-06 11:38 51.46924 -0.46865 93 ft 0 kts 180°
2026-05-06 11:38 51.46923 -0.46865 93 ft 1 kts 180°
2026-05-06 11:38 51.46892 -0.46865 93 ft 7 kts 180°
2026-05-06 11:39 51.46838 -0.46865 93 ft 9 kts 180°
2026-05-06 11:39 51.46771 -0.46864 96 ft 10 kts 180°
2026-05-06 11:39 51.46708 -0.46864 96 ft 12 kts 180°
2026-05-06 11:39 51.46662 -0.46905 97 ft 8 kts 240°
2026-05-06 11:40 51.46656 -0.47002 96 ft 10 kts 270°
2026-05-06 11:40 51.46656 -0.47118 96 ft 11 kts 270°
2026-05-06 11:40 51.46656 -0.47181 96 ft 0 kts 270°
2026-05-06 11:40 51.46656 -0.47182 96 ft 1 kts 270°
2026-05-06 11:41 51.46656 -0.47191 96 ft 0 kts 270°
2026-05-06 11:41 51.46656 -0.47257 96 ft 10 kts 270°
2026-05-06 11:41 51.46655 -0.47374 95 ft 11 kts 270°
2026-05-06 11:42 51.46655 -0.47509 95 ft 13 kts 270°
2026-05-06 11:42 51.46654 -0.47663 93 ft 14 kts 270°
2026-05-06 11:42 51.46654 -0.47830 93 ft 16 kts 269°
2026-05-06 11:42 51.46653 -0.48012 93 ft 17 kts 269°
2026-05-06 11:43 51.46652 -0.48206 93 ft 18 kts 269°
2026-05-06 11:43 51.46652 -0.48303 93 ft 0 kts 269°
2026-05-06 11:44 51.46652 -0.48313 93 ft 5 kts 269°
2026-05-06 11:44 51.46651 -0.48411 93 ft 10 kts 270°
2026-05-06 11:44 51.46651 -0.48534 93 ft 12 kts 270°
2026-05-06 11:45 51.46651 -0.48658 93 ft 0 kts 270°
2026-05-06 11:45 51.46651 -0.48687 93 ft 8 kts 269°
2026-05-06 11:45 51.46625 -0.48755 97 ft 7 kts 213°
2026-05-06 11:45 51.46601 -0.48771 97 ft 0 kts 198°
2026-05-06 11:46 51.46570 -0.48785 95 ft 13 kts 193°
2026-05-06 11:46 51.46489 -0.48746 97 ft 12 kts 129°
2026-05-06 11:46 51.46478 -0.48628 95 ft 11 kts 89°
2026-05-06 11:47 51.46478 -0.48496 94 ft 12 kts 90°
2026-05-06 11:47 51.46479 -0.48330 95 ft 26 kts 90°
2026-05-06 11:47 51.46481 -0.47667 92 ft 92 kts 90°
2026-05-06 11:47 51.46485 -0.46329 98 ft 147 kts 90°
2026-05-06 11:48 51.46472 -0.44521 483 ft 162 kts 87°
2026-05-06 11:48 51.46445 -0.42770 1264 ft 155 kts 86°
2026-05-06 11:48 51.46840 -0.41140 1564 ft 165 kts 46°
2026-05-06 11:48 51.47689 -0.39832 2082 ft 175 kts 39°
2026-05-06 11:49 51.48588 -0.38445 2620 ft 186 kts 43°
2026-05-06 11:49 51.49507 -0.36869 3214 ft 197 kts 45°
2026-05-06 11:49 51.50468 -0.35130 3557 ft 220 kts 46°
2026-05-06 11:49 51.51479 -0.33117 3945 ft 241 kts 53°
2026-05-06 11:50 51.52194 -0.30616 4611 ft 250 kts 68°
2026-05-06 11:50 51.52738 -0.27977 5345 ft 255 kts 69°
2026-05-06 11:50 51.53312 -0.25233 5846 ft 262 kts 68°
2026-05-06 11:50 51.54039 -0.22557 5972 ft 261 kts 56°
2026-05-06 11:51 51.55307 -0.20543 6003 ft 257 kts 30°
2026-05-06 11:51 51.56912 -0.19325 6005 ft 255 kts 21°
2026-05-06 11:51 51.58560 -0.18263 6022 ft 255 kts 20°
2026-05-06 11:51 51.60258 -0.17377 6020 ft 255 kts 15°
2026-05-06 11:52 51.61973 -0.16617 6025 ft 255 kts 14°
2026-05-06 11:52 51.63686 -0.15858 6029 ft 256 kts 15°
2026-05-06 11:52 51.65397 -0.15083 6025 ft 255 kts 15°
2026-05-06 11:52 51.67108 -0.14308 6029 ft 255 kts 15°
2026-05-06 11:53 51.68821 -0.13521 6033 ft 256 kts 15°
2026-05-06 11:53 51.70529 -0.12733 6027 ft 255 kts 15°
2026-05-06 11:53 51.72232 -0.11937 6021 ft 255 kts 17°
2026-05-06 11:53 51.73844 -0.10724 6003 ft 257 kts 35°
2026-05-06 11:54 51.75002 -0.08538 6079 ft 260 kts 62°
2026-05-06 11:54 51.75544 -0.05743 6488 ft 263 kts 76°
2026-05-06 11:54 51.75848 -0.02805 7242 ft 267 kts 80°
2026-05-06 11:54 51.76062 0.00167 8015 ft 274 kts 82°
2026-05-06 11:55 51.76232 0.02864 8657 ft 280 kts 82°
2026-05-06 11:55 51.76435 0.06014 9415 ft 287 kts 82°
2026-05-06 11:55 51.76661 0.09254 10173 ft 293 kts 81°
2026-05-06 11:55 51.76915 0.12623 10577 ft 313 kts 81°
2026-05-06 11:56 51.77204 0.16201 10890 ft 334 kts 81°
2026-05-06 11:56 51.77521 0.20025 11245 ft 352 kts 81°
2026-05-06 11:56 51.78066 0.23919 11685 ft 360 kts 67°
2026-05-06 11:56 51.79352 0.27372 12416 ft 361 kts 49°
2026-05-06 11:57 51.81035 0.30408 13112 ft 365 kts 44°
2026-05-06 11:57 51.82870 0.33285 13797 ft 370 kts 41°
2026-05-06 11:57 51.84781 0.36118 14432 ft 375 kts 40°
2026-05-06 11:57 51.86720 0.38975 15065 ft 379 kts 41°
2026-05-06 11:58 51.88660 0.41882 15711 ft 383 kts 41°
2026-05-06 11:58 51.90587 0.44826 16329 ft 386 kts 42°
2026-05-06 11:58 51.92520 0.47829 16978 ft 391 kts 42°
2026-05-06 11:58 51.94481 0.50908 17652 ft 395 kts 43°
2026-05-06 11:59 51.96460 0.54036 18334 ft 399 kts 43°
2026-05-06 11:59 51.98455 0.57200 18911 ft 403 kts 43°
2026-05-06 11:59 52.00466 0.60388 19514 ft 406 kts 43°
2026-05-06 11:59 52.02547 0.63434 20083 ft 409 kts 37°
2026-05-06 12:00 52.04809 0.66252 20688 ft 412 kts 35°
2026-05-06 12:00 52.07145 0.69001 21276 ft 416 kts 34°
2026-05-06 12:00 52.09525 0.71718 21872 ft 419 kts 33°
2026-05-06 12:00 52.11937 0.74441 22458 ft 423 kts 33°
2026-05-06 12:01 52.14368 0.77188 23047 ft 427 kts 33°
2026-05-06 12:01 52.16815 0.79965 23609 ft 431 kts 33°
2026-05-06 12:01 52.19280 0.82780 24109 ft 434 kts 34°
2026-05-06 12:01 52.21761 0.85627 24607 ft 437 kts 34°
2026-05-06 12:02 52.24258 0.88502 25132 ft 441 kts 34°
2026-05-06 12:02 52.26773 0.91406 25617 ft 443 kts 34°
2026-05-06 12:02 52.29273 0.94297 26118 ft 446 kts 34°
2026-05-06 12:02 52.31678 0.97081 26582 ft 449 kts 34°
2026-05-06 12:03 52.34236 1.00045 27068 ft 452 kts 34°
2026-05-06 12:03 52.36811 1.03026 27571 ft 455 kts 34°
2026-05-06 12:03 52.38562 1.05056 27871 ft 457 kts 34°
2026-05-06 12:03 52.41128 1.08041 28340 ft 460 kts 34°
2026-05-06 12:04 52.43749 1.11096 28788 ft 463 kts 34°
2026-05-06 12:04 52.46377 1.14165 29241 ft 466 kts 34°
2026-05-06 12:04 52.49031 1.17268 29668 ft 469 kts 34°
2026-05-06 12:04 52.51695 1.20388 30081 ft 472 kts 34°
2026-05-06 12:05 52.54375 1.23529 30415 ft 475 kts 34°
2026-05-06 12:05 52.57080 1.26704 30767 ft 478 kts 34°
2026-05-06 12:05 52.59791 1.29892 31106 ft 481 kts 34°
2026-05-06 12:05 52.62518 1.33101 31444 ft 483 kts 34°
2026-05-06 12:06 52.65254 1.36328 31778 ft 485 kts 34°
2026-05-06 12:06 52.68005 1.39576 32105 ft 487 kts 34°
2026-05-06 12:06 52.70767 1.42843 32400 ft 489 kts 34°
2026-05-06 12:06 52.73540 1.46130 32685 ft 491 kts 34°
2026-05-06 12:07 52.76321 1.49429 32974 ft 494 kts 35°
2026-05-06 12:07 52.79109 1.52743 33253 ft 496 kts 35°
2026-05-06 12:07 52.81906 1.56074 33620 ft 495 kts 35°
2026-05-06 12:07 52.84704 1.59411 34017 ft 494 kts 35°
2026-05-06 12:08 52.87490 1.62739 34320 ft 494 kts 35°
2026-05-06 12:08 52.90246 1.66036 34524 ft 495 kts 35°
2026-05-06 12:08 52.93049 1.69395 34767 ft 497 kts 35°
2026-05-06 12:08 52.95852 1.72758 35021 ft 497 kts 35°
2026-05-06 12:09 52.98653 1.76126 35269 ft 498 kts 35°
2026-05-06 12:09 53.01460 1.79506 35507 ft 498 kts 35°
2026-05-06 12:09 53.04270 1.82895 35738 ft 499 kts 35°
2026-05-06 12:09 53.07078 1.86288 35960 ft 500 kts 35°
2026-05-06 12:10 53.09893 1.89694 36188 ft 501 kts 35°
2026-05-06 12:10 53.12711 1.93110 36420 ft 501 kts 35°
2026-05-06 12:10 53.15531 1.96534 36625 ft 502 kts 35°
2026-05-06 12:10 53.18357 1.99970 36842 ft 503 kts 35°
2026-05-06 12:11 53.21186 2.03417 37057 ft 503 kts 35°
2026-05-06 12:11 53.24013 2.06866 37282 ft 504 kts 35°
2026-05-06 12:11 53.26842 2.10319 37517 ft 504 kts 35°
2026-05-06 12:11 53.29710 2.13698 37704 ft 504 kts 33°
2026-05-06 12:12 53.32616 2.16985 37912 ft 505 kts 32°
2026-05-06 12:12 53.35539 2.20245 38114 ft 505 kts 32°
2026-05-06 12:12 53.38424 2.23465 38306 ft 505 kts 32°
2026-05-06 12:12 53.41342 2.26746 38487 ft 505 kts 33°
2026-05-06 12:13 53.44246 2.30036 38674 ft 506 kts 33°
2026-05-06 12:13 53.47159 2.33360 38802 ft 506 kts 33°
2026-05-06 12:13 53.50068 2.36711 38947 ft 507 kts 34°
2026-05-06 12:13 53.52936 2.40205 38984 ft 510 kts 36°
2026-05-06 12:14 53.58575 2.47433 38989 ft 510 kts 36°
2026-05-06 12:14 53.64209 2.54690 38992 ft 510 kts 36°
2026-05-06 12:15 53.69867 2.61905 38992 ft 510 kts 36°
2026-05-06 12:15 53.75546 2.69124 38991 ft 510 kts 36°
2026-05-06 12:16 53.81218 2.76357 38993 ft 511 kts 36°
2026-05-06 12:16 53.86713 2.83390 38995 ft 511 kts 36°
2026-05-06 12:17 53.92385 2.90678 38994 ft 511 kts 36°
2026-05-06 12:17 53.98018 2.97942 38994 ft 512 kts 36°
2026-05-06 12:18 54.03680 3.05268 38995 ft 512 kts 36°
2026-05-06 12:18 54.09349 3.12630 39001 ft 512 kts 36°
2026-05-06 12:19 54.15008 3.20004 39002 ft 513 kts 36°
2026-05-06 12:19 54.20683 3.27427 39003 ft 513 kts 36°
2026-05-06 12:20 54.26353 3.34868 39007 ft 513 kts 36°
2026-05-06 12:20 54.32011 3.42319 39006 ft 514 kts 36°
2026-05-06 12:21 54.37631 3.49748 39010 ft 514 kts 36°
2026-05-06 12:21 54.43296 3.57262 39012 ft 514 kts 37°
2026-05-06 12:22 54.48948 3.64786 39007 ft 514 kts 37°
2026-05-06 12:22 54.54606 3.72347 39011 ft 515 kts 37°
2026-05-06 12:23 54.60261 3.79929 39013 ft 515 kts 37°
2026-05-06 12:23 54.65912 3.87534 39008 ft 515 kts 37°
2026-05-06 12:24 54.71563 3.95166 39012 ft 515 kts 37°
2026-05-06 12:24 54.77216 4.02829 39014 ft 516 kts 37°
2026-05-06 12:25 54.82859 4.10506 39014 ft 516 kts 37°
2026-05-06 12:25 54.88172 4.18745 39011 ft 517 kts 45°
2026-05-06 12:26 54.93096 4.27876 39009 ft 518 kts 46°
2026-05-06 12:26 54.97954 4.37138 39010 ft 518 kts 47°
2026-05-06 12:27 55.02809 4.46428 39005 ft 519 kts 47°
2026-05-06 12:27 55.07669 4.55730 39006 ft 519 kts 47°
2026-05-06 12:28 55.12530 4.65056 39006 ft 519 kts 47°
2026-05-06 12:28 55.17392 4.74417 39007 ft 519 kts 47°
2026-05-06 12:29 55.22245 4.83799 39009 ft 520 kts 47°
2026-05-06 12:29 55.27093 4.93210 39014 ft 520 kts 47°
2026-05-06 12:30 55.31731 5.02867 39019 ft 521 kts 53°
2026-05-06 12:30 55.36026 5.13138 39018 ft 521 kts 54°
2026-05-06 12:31 55.40256 5.23484 39019 ft 521 kts 54°
2026-05-06 12:31 55.44483 5.33874 39017 ft 522 kts 54°
2026-05-06 12:32 55.48709 5.44277 39014 ft 522 kts 54°
2026-05-06 12:32 55.52934 5.54708 39014 ft 522 kts 54°
2026-05-06 12:33 55.57150 5.65162 39012 ft 522 kts 54°
2026-05-06 12:33 55.61334 5.75579 39018 ft 522 kts 54°
2026-05-06 12:34 55.65535 5.86086 39012 ft 523 kts 54°
2026-05-06 12:34 55.69731 5.96626 39014 ft 523 kts 54°
2026-05-06 12:35 55.73916 6.07183 39009 ft 523 kts 54°
2026-05-06 12:35 55.78102 6.17787 39009 ft 523 kts 54°
2026-05-06 12:36 55.82278 6.28413 39008 ft 524 kts 55°
2026-05-06 12:36 55.86445 6.39061 39002 ft 524 kts 55°
2026-05-06 12:37 55.90581 6.49679 39003 ft 524 kts 55°
2026-05-06 12:37 55.94736 6.60389 39004 ft 524 kts 55°
2026-05-06 12:38 55.98874 6.71104 39001 ft 525 kts 55°
2026-05-06 12:38 56.03016 6.81876 39002 ft 525 kts 55°
2026-05-06 12:39 56.07117 6.92586 39003 ft 525 kts 55°
2026-05-06 12:39 56.11238 7.03399 38999 ft 525 kts 55°
2026-05-06 12:40 56.15345 7.14221 38995 ft 526 kts 56°
2026-05-06 12:40 56.19456 7.25103 38998 ft 526 kts 56°
2026-05-06 12:41 56.23552 7.35995 38992 ft 526 kts 56°
2026-05-06 12:41 56.27641 7.46915 38993 ft 526 kts 56°
2026-05-06 12:42 56.31723 7.57867 38994 ft 526 kts 56°
2026-05-06 12:42 56.35795 7.68842 38990 ft 527 kts 56°
2026-05-06 12:43 56.39837 7.79782 38984 ft 527 kts 56°
2026-05-06 12:43 56.43894 7.90817 38985 ft 527 kts 56°
2026-05-06 12:44 56.47950 8.01897 38985 ft 527 kts 56°
2026-05-06 12:44 56.51990 8.12984 38979 ft 528 kts 56°
2026-05-06 12:45 56.56018 8.24089 38976 ft 528 kts 57°
2026-05-06 12:46 56.62058 8.40838 38968 ft 528 kts 57°
2026-05-06 12:46 56.66070 8.52027 38967 ft 528 kts 57°
2026-05-06 12:47 56.70070 8.63235 38966 ft 529 kts 57°
2026-05-06 12:47 56.74038 8.74404 38966 ft 529 kts 57°
2026-05-06 12:48 56.78025 8.85680 38967 ft 529 kts 57°
2026-05-06 12:48 56.82002 8.96981 38964 ft 529 kts 57°
2026-05-06 12:49 56.85969 9.08305 38962 ft 530 kts 57°
2026-05-06 12:49 56.89938 9.19688 38964 ft 530 kts 57°
2026-05-06 12:50 56.93889 9.31077 38951 ft 530 kts 58°
2026-05-06 12:50 56.97835 9.42501 38970 ft 530 kts 58°
2026-05-06 12:51 57.01109 9.52024 38968 ft 531 kts 58°
2026-05-06 12:51 57.05039 9.63503 38958 ft 531 kts 58°
2026-05-06 12:52 57.08962 9.75017 38975 ft 531 kts 58°
2026-05-06 12:52 57.12878 9.86565 38963 ft 532 kts 58°
2026-05-06 12:53 57.16778 9.98123 38977 ft 532 kts 58°
2026-05-06 12:53 57.20675 10.09727 38956 ft 532 kts 58°
2026-05-06 12:54 57.24563 10.21363 38959 ft 532 kts 58°
2026-05-06 12:54 57.28416 10.32947 38957 ft 533 kts 58°
2026-05-06 12:55 57.32291 10.44659 38956 ft 533 kts 58°
2026-05-06 12:55 57.36159 10.56402 38964 ft 533 kts 59°
2026-05-06 12:56 57.40010 10.68153 38967 ft 533 kts 59°
2026-05-06 12:56 57.43853 10.79941 38963 ft 534 kts 59°
2026-05-06 12:57 57.47657 10.91663 38960 ft 534 kts 59°
2026-05-06 12:57 57.51480 11.03505 38964 ft 534 kts 59°
2026-05-06 12:58 57.55294 11.15379 38964 ft 534 kts 59°
2026-05-06 12:58 57.59094 11.27266 38964 ft 534 kts 59°
2026-05-06 12:59 57.62891 11.39205 38965 ft 535 kts 59°
2026-05-06 12:59 57.66677 11.51171 38965 ft 535 kts 59°
2026-05-06 13:00 57.70452 11.63161 38964 ft 535 kts 59°
2026-05-06 13:00 57.74221 11.75193 38967 ft 535 kts 60°
2026-05-06 13:01 57.77971 11.87230 38964 ft 535 kts 60°
2026-05-06 13:01 57.81694 11.99237 38966 ft 536 kts 60°
2026-05-06 13:02 57.85427 12.11340 38963 ft 536 kts 60°
2026-05-06 13:02 57.89153 12.23485 38953 ft 536 kts 60°
2026-05-06 13:03 57.92869 12.35656 38934 ft 537 kts 60°
2026-05-06 13:03 57.96574 12.47855 38936 ft 537 kts 60°
2026-05-06 13:04 58.00267 12.60082 38936 ft 537 kts 60°
2026-05-06 13:04 58.03951 12.72339 38931 ft 537 kts 60°
2026-05-06 13:05 58.07623 12.84623 38932 ft 537 kts 61°
2026-05-06 13:05 58.11288 12.96946 38935 ft 538 kts 61°
2026-05-06 13:06 58.14943 13.09305 38935 ft 538 kts 61°
2026-05-06 13:06 58.18583 13.21682 38931 ft 538 kts 61°
2026-05-06 13:07 58.22211 13.34079 38931 ft 538 kts 61°
2026-05-06 13:07 58.25814 13.46454 38936 ft 538 kts 61°
2026-05-06 13:08 58.29421 13.58914 38937 ft 538 kts 61°
2026-05-06 13:08 58.33019 13.71407 38939 ft 539 kts 62°
2026-05-06 13:09 58.36612 13.83955 38941 ft 539 kts 62°
2026-05-06 13:09 58.40196 13.96535 38950 ft 539 kts 62°
2026-05-06 13:10 58.43762 14.09124 38958 ft 539 kts 62°
2026-05-06 13:10 58.47297 14.21672 38964 ft 540 kts 62°
2026-05-06 13:11 58.50840 14.34318 38965 ft 540 kts 62°
2026-05-06 13:11 58.54375 14.47003 38965 ft 540 kts 62°
2026-05-06 13:12 58.57895 14.59707 38965 ft 540 kts 62°
2026-05-06 13:12 58.61416 14.72486 38963 ft 541 kts 62°
2026-05-06 13:13 58.64916 14.85259 38964 ft 541 kts 62°
2026-05-06 13:13 58.68408 14.98077 38960 ft 541 kts 63°
2026-05-06 13:14 58.71889 15.10926 38963 ft 541 kts 63°
2026-05-06 13:14 58.75354 15.23786 38957 ft 542 kts 63°
2026-05-06 13:15 58.78787 15.36605 38957 ft 542 kts 63°
2026-05-06 13:15 58.82233 15.49541 38957 ft 542 kts 63°
2026-05-06 13:16 58.85667 15.62511 38957 ft 542 kts 63°
2026-05-06 13:16 58.89088 15.75502 38961 ft 543 kts 63°
2026-05-06 13:17 58.92501 15.88542 38962 ft 543 kts 63°
2026-05-06 13:17 58.95900 16.01602 38965 ft 543 kts 63°
2026-05-06 13:18 58.99286 16.14688 38966 ft 543 kts 63°
2026-05-06 13:18 59.02665 16.27826 38967 ft 543 kts 63°
2026-05-06 13:19 59.06026 16.40975 38970 ft 544 kts 64°
2026-05-06 13:19 59.09377 16.54158 38967 ft 544 kts 64°
2026-05-06 13:20 59.12696 16.67293 38972 ft 544 kts 64°
2026-05-06 13:20 59.16030 16.80566 38975 ft 544 kts 64°
2026-05-06 13:21 59.19340 16.93824 38976 ft 544 kts 64°
2026-05-06 13:21 59.22640 17.07121 38976 ft 544 kts 64°
2026-05-06 13:22 59.25930 17.20459 38978 ft 544 kts 64°
2026-05-06 13:22 59.29203 17.33811 38981 ft 545 kts 64°
2026-05-06 13:23 59.32464 17.47191 38985 ft 545 kts 64°
2026-05-06 13:23 59.35551 17.59939 38988 ft 545 kts 64°
2026-05-06 13:24 59.38789 17.73386 38993 ft 545 kts 65°
2026-05-06 13:24 59.41991 17.86768 38994 ft 545 kts 65°
2026-05-06 13:25 59.45203 18.00276 38993 ft 545 kts 65°
2026-05-06 13:25 59.48386 18.13745 38990 ft 545 kts 65°
2026-05-06 13:26 59.51570 18.27302 38993 ft 545 kts 65°
2026-05-06 13:26 59.54743 18.40901 38994 ft 546 kts 65°
2026-05-06 13:27 59.57901 18.54518 38998 ft 546 kts 65°
2026-05-06 13:27 59.61044 18.68159 39004 ft 546 kts 65°
2026-05-06 13:28 59.63653 18.79547 39007 ft 546 kts 65°
2026-05-06 13:28 59.66814 18.93425 39014 ft 546 kts 65°
2026-05-06 13:29 59.69899 19.07058 39016 ft 546 kts 65°
2026-05-06 13:29 59.72996 19.20839 39021 ft 547 kts 66°
2026-05-06 13:30 59.76074 19.34618 39025 ft 547 kts 66°
2026-05-06 13:30 59.79147 19.48470 39024 ft 547 kts 66°
2026-05-06 13:31 59.82199 19.62317 39028 ft 547 kts 66°
2026-05-06 13:31 59.85238 19.76195 39026 ft 547 kts 66°
2026-05-06 13:32 59.88263 19.90101 39024 ft 547 kts 66°
2026-05-06 13:32 59.91254 20.03946 39026 ft 547 kts 66°
2026-05-06 13:33 59.94248 20.17892 39026 ft 547 kts 66°
2026-05-06 13:33 59.97229 20.31878 39031 ft 547 kts 66°
2026-05-06 13:34 60.00197 20.45893 39032 ft 547 kts 66°
2026-05-06 13:34 60.03148 20.59923 38803 ft 546 kts 66°
2026-05-06 13:34 60.04609 20.66903 38301 ft 542 kts 67°
2026-05-06 13:35 60.06060 20.73858 37667 ft 541 kts 67°
2026-05-06 13:35 60.07509 20.80822 37023 ft 541 kts 67°
2026-05-06 13:35 60.08950 20.87776 36364 ft 542 kts 68°
2026-05-06 13:35 60.09908 20.92412 35919 ft 543 kts 68°
2026-05-06 13:36 60.11839 21.01791 34994 ft 546 kts 68°
2026-05-06 13:36 60.12795 21.06454 34489 ft 549 kts 68°
2026-05-06 13:36 60.14251 21.13568 33650 ft 555 kts 68°
2026-05-06 13:36 60.15719 21.20774 32928 ft 556 kts 68°
2026-05-06 13:37 60.17174 21.27941 32390 ft 553 kts 69°
2026-05-06 13:37 60.18619 21.35083 31840 ft 551 kts 69°
2026-05-06 13:37 60.19992 21.42239 31448 ft 546 kts 74°
2026-05-06 13:37 60.20960 21.49669 31118 ft 549 kts 79°
2026-05-06 13:38 60.21807 21.57133 30603 ft 546 kts 81°
2026-05-06 13:38 60.22597 21.64585 30046 ft 544 kts 82°
2026-05-06 13:38 60.23347 21.71932 29463 ft 541 kts 82°
2026-05-06 13:38 60.24091 21.79322 28913 ft 538 kts 81°
2026-05-06 13:39 60.24832 21.86687 28378 ft 534 kts 81°
2026-05-06 13:39 60.25567 21.93981 27845 ft 531 kts 81°
2026-05-06 13:39 60.26301 22.01241 27318 ft 527 kts 81°
2026-05-06 13:39 60.27029 22.08449 26795 ft 524 kts 81°
2026-05-06 13:40 60.27994 22.18040 26089 ft 520 kts 80°
2026-05-06 13:40 60.28469 22.22783 25742 ft 518 kts 80°
2026-05-06 13:40 60.29185 22.29972 25205 ft 516 kts 80°
2026-05-06 13:40 60.29876 22.36954 24695 ft 513 kts 79°
2026-05-06 13:41 60.30576 22.44066 24152 ft 510 kts 79°
2026-05-06 13:41 60.31252 22.50983 23634 ft 507 kts 79°
2026-05-06 13:41 60.31930 22.57945 23038 ft 504 kts 79°
2026-05-06 13:41 60.32599 22.64852 22504 ft 498 kts 79°
2026-05-06 13:42 60.33259 22.71675 22005 ft 492 kts 79°
2026-05-06 13:42 60.33902 22.78422 21484 ft 487 kts 79°
2026-05-06 13:42 60.34536 22.85121 20959 ft 482 kts 79°
2026-05-06 13:42 60.35161 22.91756 20444 ft 478 kts 79°
2026-05-06 13:43 60.35776 22.98322 19922 ft 473 kts 79°
2026-05-06 13:43 60.36382 23.04822 19401 ft 469 kts 79°
2026-05-06 13:43 60.36981 23.11273 18890 ft 465 kts 79°
2026-05-06 13:43 60.37570 23.17663 18377 ft 461 kts 79°
2026-05-06 13:44 60.38150 23.23999 17819 ft 456 kts 79°
2026-05-06 13:44 60.38722 23.30268 17304 ft 450 kts 79°
2026-05-06 13:44 60.39276 23.36379 16822 ft 445 kts 79°
2026-05-06 13:44 60.39829 23.42503 16315 ft 439 kts 79°
2026-05-06 13:45 60.40370 23.48540 15806 ft 434 kts 79°
2026-05-06 13:45 60.41426 23.60406 14848 ft 423 kts 79°
2026-05-06 13:45 60.41941 23.66231 14359 ft 418 kts 79°
2026-05-06 13:46 60.42447 23.72003 13896 ft 413 kts 78°
2026-05-06 13:46 60.42945 23.77692 13360 ft 408 kts 78°
2026-05-06 13:46 60.43434 23.83298 13062 ft 397 kts 79°
2026-05-06 13:46 60.43901 23.88700 12925 ft 382 kts 78°
2026-05-06 13:47 60.44271 23.93919 12803 ft 368 kts 82°
2026-05-06 13:47 60.44533 23.98985 12674 ft 355 kts 83°
2026-05-06 13:47 60.44787 24.03867 12519 ft 343 kts 83°
2026-05-06 13:47 60.45040 24.08525 12245 ft 329 kts 83°
2026-05-06 13:48 60.45290 24.13036 11813 ft 316 kts 83°
2026-05-06 13:48 60.45535 24.17448 11481 ft 313 kts 83°
2026-05-06 13:48 60.45777 24.21798 11160 ft 309 kts 83°
2026-05-06 13:48 60.46017 24.26094 10887 ft 305 kts 83°
2026-05-06 13:49 60.46204 24.30345 10599 ft 301 kts 85°
2026-05-06 13:49 60.46355 24.34545 10309 ft 298 kts 85°
2026-05-06 13:49 60.46507 24.38701 10032 ft 294 kts 85°
2026-05-06 13:49 60.46662 24.42825 9709 ft 293 kts 85°
2026-05-06 13:50 60.46818 24.46953 9430 ft 294 kts 85°
2026-05-06 13:50 60.46971 24.51076 9137 ft 292 kts 85°
2026-05-06 13:50 60.47128 24.55188 8853 ft 291 kts 84°
2026-05-06 13:50 60.47283 24.59257 8586 ft 290 kts 85°
2026-05-06 13:51 60.47219 24.63339 8296 ft 290 kts 97°
2026-05-06 13:51 60.46880 24.67353 8020 ft 288 kts 101°
2026-05-06 13:51 60.46504 24.71331 7732 ft 287 kts 100°
2026-05-06 13:51 60.46140 24.75304 7456 ft 286 kts 100°
2026-05-06 13:52 60.45779 24.79252 7174 ft 285 kts 100°
2026-05-06 13:52 60.45426 24.83153 6899 ft 284 kts 100°
2026-05-06 13:52 60.45074 24.87069 6624 ft 283 kts 100°
2026-05-06 13:52 60.44744 24.90962 6464 ft 274 kts 96°
2026-05-06 13:53 60.44922 24.94685 6309 ft 260 kts 67°
2026-05-06 13:53 60.45883 24.97619 6209 ft 243 kts 45°
2026-05-06 13:53 60.47037 25.00083 5982 ft 240 kts 43°
2026-05-06 13:53 60.48191 25.02542 5711 ft 240 kts 44°
2026-05-06 13:54 60.49322 25.05011 5480 ft 239 kts 44°
2026-05-06 13:54 60.50453 25.07492 5229 ft 240 kts 44°
2026-05-06 13:54 60.51541 25.10053 4975 ft 240 kts 52°
2026-05-06 13:54 60.52143 25.13194 4721 ft 244 kts 83°
2026-05-06 13:55 60.51843 25.16511 4530 ft 238 kts 116°
2026-05-06 13:55 60.50856 25.19050 4417 ft 225 kts 138°
2026-05-06 13:55 60.49725 25.21056 4364 ft 207 kts 141°
2026-05-06 13:55 60.48661 25.22922 4208 ft 199 kts 140°
2026-05-06 13:56 60.47606 25.24637 4043 ft 188 kts 148°
2026-05-06 13:56 60.46413 25.25334 3823 ft 176 kts 187°
2026-05-06 13:56 60.45318 25.24543 3679 ft 164 kts 212°
2026-05-06 13:56 60.44454 25.23131 3604 ft 155 kts 231°
2026-05-06 13:57 60.43758 25.21531 3409 ft 149 kts 232°
2026-05-06 13:57 60.43064 25.20007 3240 ft 147 kts 231°
2026-05-06 13:57 60.42362 25.18473 3007 ft 148 kts 230°
2026-05-06 13:57 60.41667 25.16924 2761 ft 145 kts 232°
2026-05-06 13:58 60.40998 25.15431 2563 ft 144 kts 231°
2026-05-06 13:58 60.40311 25.13912 2368 ft 149 kts 231°
2026-05-06 13:58 60.39610 25.12363 2168 ft 151 kts 231°
2026-05-06 13:58 60.38901 25.10791 1940 ft 149 kts 230°
2026-05-06 13:59 60.38227 25.09301 1762 ft 143 kts 230°
2026-05-06 13:59 60.37563 25.07833 1546 ft 140 kts 230°
2026-05-06 13:59 60.36919 25.06410 1343 ft 136 kts 230°
2026-05-06 13:59 60.36292 25.05014 1204 ft 137 kts 230°
2026-05-06 14:00 60.35639 25.03577 987 ft 137 kts 230°
2026-05-06 14:00 60.34989 25.02145 726 ft 135 kts 229°
2026-05-06 14:00 60.34347 25.00766 553 ft 134 kts 227°
2026-05-06 14:00 60.33718 24.99373 407 ft 135 kts 229°
2026-05-06 14:01 60.33097 24.98004 252 ft 133 kts 228°
2026-05-06 14:01 60.32485 24.96646 171 ft 124 kts 228°
2026-05-06 14:01 60.32109 24.95803 170 ft 38 kts 227°
2026-05-06 14:01 60.32038 24.95647 169 ft 13 kts 227°
2026-05-06 14:02 60.31950 24.95458 168 ft 21 kts 224°
2026-05-06 14:02 60.31832 24.95304 170 ft 20 kts 207°
2026-05-06 14:02 60.31773 24.95253 170 ft 0 kts 202°
2026-05-06 14:03 60.31721 24.95217 170 ft 15 kts 196°
2026-05-06 14:03 60.31710 24.95211 170 ft 0 kts 196°
2026-05-06 14:04 60.31710 24.95210 170 ft 1 kts 196°
2026-05-06 14:04 60.31704 24.95207 170 ft 2 kts 196°
2026-05-06 14:04 60.31671 24.95192 170 ft 7 kts 187°
2026-05-06 14:05 60.31624 24.95228 169 ft 8 kts 160°
2026-05-06 14:05 60.31579 24.95195 169 ft 8 kts 219°
2026-05-06 14:05 60.31555 24.95147 169 ft 0 kts 225°
2026-05-06 14:06 60.31519 24.95063 169 ft 12 kts 230°
2026-05-06 14:06 60.31479 24.94980 169 ft 3 kts 208°
2026-05-06 14:06 60.31457 24.94979 169 ft 4 kts 168°
2026-05-06 14:06 60.31433 24.95018 169 ft 5 kts 140°
2026-05-06 14:07 60.31393 24.95088 169 ft 10 kts 137°
2026-05-06 14:07 60.31334 24.95199 169 ft 14 kts 136°
2026-05-06 14:07 60.31259 24.95340 169 ft 16 kts 137°
2026-05-06 14:07 60.31194 24.95461 169 ft 7 kts 137°
2026-05-06 14:08 60.31157 24.95538 169 ft 5 kts 118°
2026-05-06 14:08 60.31160 24.95590 169 ft 4 kts 71°
2026-05-06 14:08 60.31197 24.95683 169 ft 11 kts 47°
2026-05-06 14:08 60.31253 24.95804 169 ft 7 kts 47°
2026-05-06 14:09 60.31290 24.95886 170 ft 9 kts 47°
2026-05-06 14:09 60.31322 24.95929 170 ft 3 kts
2026-05-06 14:09 60.31341 24.95914 170 ft 4 kts 335°
2026-05-06 14:09 60.31372 24.95877 170 ft 6 kts 328°
2026-05-06 14:10 60.31388 24.95858 170 ft 0 kts 328°
2026-05-06 14:10 60.31389 24.95857 170 ft 0 kts 328°